When you browse on this site, cookies collect data to enhance your experience and personalize the content and advertising you see.
Visit our Privacy Policy to learn more. By continuing to use the site, you agree to this use of cookies and data.
  • In Netherlands
  • List of Countries
  • For 7 days
  • Water Temperature
  • Weather Map
  • Weather Widgets
  • user-avatar
    Login

    Hourly Weather Quito

    Today, 29 February, Saturday

    Time Temperature Precipitation Wind Pressure Humidity
    00:00 +16°C° 0 mm 1 mps 621 mmHg 93%
    01:00 +16°C° 0 mm 1 mps 621 mmHg 93%
    02:00 +15°C° 0 mm 1 mps 621 mmHg 92%
    03:00 +15°C° 0 mm 1 mps 620 mmHg 91%
    04:00 +14°C° 0 mm 1 mps 620 mmHg 91%
    05:00 +15°C° 0 mm 1 mps 621 mmHg 90%
    06:00 +16°C° 0 mm 1 mps 621 mmHg 89%
    07:00 +16°C° 0 mm 1 mps 622 mmHg 89%
    08:00 +19°C° 0 mm 1 mps 623 mmHg 81%
    09:00 +21°C° 0 mm 1 mps 624 mmHg 73%
    10:00 +23°C° 0 mm 1 mps 624 mmHg 64%
    11:00 +24°C° 0 mm 1 mps 624 mmHg 59%
    12:00 +25°C° 0 mm 1 mps 624 mmHg 53%
    13:00 +26°C° 0 mm 1 mps 624 mmHg 47%
    14:00 +26°C° 0 mm 1 mps 623 mmHg 47%
    15:00 +26°C° 0 mm 2 mps 623 mmHg 46%
    16:00 +26°C° 0 mm 2 mps 623 mmHg 45%
    17:00 +24°C° 0 mm 1 mps 623 mmHg 54%
    18:00 +22°C° 0 mm 1 mps 622 mmHg 62%
    19:00 +20°C° 0 mm 1 mps 622 mmHg 70%
    20:00 +19°C° 0 mm 1 mps 623 mmHg 72%
    21:00 +19°C° 0 mm 1 mps 623 mmHg 73%
    22:00 +18°C° 0 mm 1 mps 623 mmHg 75%
    23:00 +17°C° 0 mm 2 mps 623 mmHg 75%

    Tomorrow, 1 March, Sunday

    Time Temperature Precipitation Wind Pressure Humidity
    00:00 +16°C° 0 mm 2 mps 622 mmHg 76%
    01:00 +16°C° 0 mm 2 mps 622 mmHg 76%
    02:00 +15°C° 0 mm 2 mps 622 mmHg 74%
    03:00 +15°C° 0 mm 2 mps 622 mmHg 72%
    04:00 +15°C° 0 mm 2 mps 621 mmHg 70%
    05:00 +15°C° 0 mm 2 mps 622 mmHg 69%
    06:00 +16°C° 0 mm 2 mps 623 mmHg 69%
    07:00 +16°C° 0 mm 2 mps 623 mmHg 68%
    08:00 +19°C° 0 mm 3 mps 624 mmHg 60%
    09:00 +21°C° 0 mm 3 mps 625 mmHg 52%
    10:00 +25°C° 0 mm 3 mps 626 mmHg 43%
    11:00 +26°C° 0 mm 3 mps 625 mmHg 43%
    12:00 +26°C° 0 mm 3 mps 625 mmHg 42%
    13:00 +27°C° 0 mm 3 mps 625 mmHg 41%
    14:00 +26°C° 0 mm 3 mps 624 mmHg 43%
    15:00 +26°C° 0 mm 3 mps 623 mmHg 46%
    16:00 +26°C° 0 mm 3 mps 623 mmHg 48%
    17:00 +22°C° 0 mm 3 mps 622 mmHg 53%
    18:00 +20°C° 0 mm 2 mps 622 mmHg 57%
    19:00 +18°C° 0 mm 2 mps 622 mmHg 62%
    20:00 +17°C° 0 mm 2 mps 622 mmHg 64%
    21:00 +17°C° 0 mm 2 mps 623 mmHg 65%
    22:00 +16°C° 0 mm 1 mps 623 mmHg 67%
    23:00 +15°C° 0 mm 2 mps 622 mmHg 71%

    Day after tomorrow, 2 March, Monday

    Time Temperature Precipitation Wind Pressure Humidity
    00:00 +15°C° 0 mm 2 mps 622 mmHg 75%
    01:00 +14°C° 0 mm 2 mps 622 mmHg 79%
    02:00 +14°C° 0 mm 2 mps 621 mmHg 81%
    03:00 +14°C° 0 mm 2 mps 621 mmHg 83%
    04:00 +14°C° 0 mm 2 mps 621 mmHg 85%
    05:00 +14°C° 0 mm 2 mps 621 mmHg 82%
    06:00 +15°C° 0 mm 2 mps 622 mmHg 79%
    07:00 +16°C° 0 mm 3 mps 623 mmHg 76%
    08:00 +17°C° 0 mm 3 mps 624 mmHg 71%
    09:00 +19°C° 0 mm 3 mps 624 mmHg 66%
    10:00 +20°C° 0 mm 4 mps 625 mmHg 61%
    11:00 +21°C° 0 mm 3 mps 625 mmHg 58%
    12:00 +24°C° 0 mm 3 mps 624 mmHg 54%
    13:00 +25°C° 0 mm 3 mps 624 mmHg 51%
    14:00 +24°C° 0 mm 3 mps 624 mmHg 52%
    15:00 +24°C° 0 mm 3 mps 623 mmHg 52%
    16:00 +24°C° 0 mm 3 mps 623 mmHg 53%
    17:00 +21°C° 0 mm 3 mps 622 mmHg 54%
    18:00 +19°C° 0 mm 3 mps 622 mmHg 56%
    19:00 +17°C° 0 mm 2 mps 622 mmHg 58%
    20:00 +17°C° 0 mm 2 mps 622 mmHg 59%
    21:00 +17°C° 0 mm 2 mps 623 mmHg 61%
    22:00 +17°C° 0 mm 2 mps 623 mmHg 62%
    23:00 +17°C° 0 mm 2 mps 623 mmHg 61%

    3 March, Tuesday

    Time Temperature Precipitation Wind Pressure Humidity
    00:00 +17°C° 0 mm 2 mps 623 mmHg 59%
    01:00 +17°C° 0 mm 2 mps 622 mmHg 58%
    02:00 +18°C° 0 mm 1 mps 622 mmHg 59%
    03:00 +18°C° 0 mm 1 mps 622 mmHg 59%
    04:00 +18°C° 0 mm 1 mps 622 mmHg 60%
    05:00 +18°C° 0 mm 1 mps 622 mmHg 63%
    06:00 +17°C° 0 mm 2 mps 623 mmHg 65%
    07:00 +17°C° 0 mm 2 mps 623 mmHg 67%
    08:00 +18°C° 0 mm 2 mps 623 mmHg 64%
    09:00 +20°C° 0 mm 2 mps 624 mmHg 61%
    10:00 +21°C° 0 mm 2 mps 624 mmHg 57%
    11:00 +23°C° 0 mm 2 mps 624 mmHg 53%
    12:00 +25°C° 0 mm 2 mps 624 mmHg 49%
    13:00 +26°C° 0 mm 3 mps 624 mmHg 45%
    14:00 +26°C° 0 mm 3 mps 623 mmHg 47%
    15:00 +26°C° 0 mm 3 mps 623 mmHg 48%
    16:00 +27°C° 0 mm 3 mps 622 mmHg 49%
    17:00 +24°C° 0 mm 2 mps 622 mmHg 58%
    18:00 +21°C° 0 mm 2 mps 622 mmHg 66%
    19:00 +19°C° 0 mm 2 mps 621 mmHg 75%
    20:00 +18°C° 0 mm 2 mps 622 mmHg 75%
    21:00 +19°C° 0 mm 1 mps 622 mmHg 74%
    22:00 +18°C° 0 mm 1 mps 622 mmHg 74%
    23:00 +18°C° 0 mm 1 mps 622 mmHg 75%

    4 March, Wednesday

    Time Temperature Precipitation Wind Pressure Humidity
    00:00 +18°C° 0 mm 1 mps 622 mmHg 75%
    01:00 +18°C° 0 mm 1 mps 622 mmHg 76%
    02:00 +18°C° 0 mm 1 mps 622 mmHg 77%
    03:00 +18°C° 0 mm 1 mps 622 mmHg 79%
    04:00 +18°C° 0 mm 1 mps 621 mmHg 80%
    05:00 +18°C° 0 mm 1 mps 622 mmHg 80%
    06:00 +18°C° 0 mm 1 mps 622 mmHg 80%
    07:00 +19°C° 0 mm 1 mps 623 mmHg 79%
    08:00 +21°C° 0 mm 1 mps 624 mmHg 71%
    09:00 +23°C° 0 mm 1 mps 625 mmHg 62%
    10:00 +26°C° 0 mm 1 mps 625 mmHg 53%
    11:00 +26°C° 0 mm 2 mps 625 mmHg 53%
    12:00 +26°C° 0 mm 2 mps 624 mmHg 52%
    13:00 +27°C° 0 mm 2 mps 623 mmHg 52%
    14:00 +26°C° 0.4 mm 2 mps 623 mmHg 57%
    15:00 +26°C° 0.4 mm 2 mps 622 mmHg 61%
    16:00 +25°C° 0.4 mm 2 mps 622 mmHg 66%
    17:00 +23°C° 0.9 mm 2 mps 621 mmHg 73%
    18:00 +21°C° 0.9 mm 1 mps 621 mmHg 80%
    19:00 +19°C° 0.9 mm 1 mps 621 mmHg 86%
    20:00 +19°C° 0.1 mm 1 mps 621 mmHg 88%
    21:00 +18°C° 0.1 mm 1 mps 622 mmHg 89%
    22:00 +18°C° 0.1 mm 1 mps 622 mmHg 91%
    23:00 +18°C° 0 mm 1 mps 622 mmHg 92%

    5 March, Thursday

    Time Temperature Precipitation Wind Pressure Humidity
    00:00 +16°C° 0 mm 2 mps 621 mmHg 92%
    01:00 +16°C° 0 mm 2 mps 621 mmHg 93%
    02:00 +16°C° 0 mm 2 mps 621 mmHg 93%
    03:00 +15°C° 0 mm 1 mps 620 mmHg 93%
    04:00 +15°C° 0 mm 1 mps 620 mmHg 93%
    05:00 +16°C° 0 mm 1 mps 621 mmHg 92%
    06:00 +16°C° 0 mm 1 mps 621 mmHg 91%
    07:00 +16°C° 0 mm 1 mps 622 mmHg 89%
    08:00 +20°C° 0 mm 1 mps 623 mmHg 80%
    09:00 +23°C° 0 mm 1 mps 624 mmHg 71%
    10:00 +26°C° 0 mm 1 mps 625 mmHg 62%
    11:00 +26°C° 0.5 mm 1 mps 624 mmHg 63%
    12:00 +26°C° 0.5 mm 1 mps 623 mmHg 64%
    13:00 +26°C° 0.5 mm 1 mps 622 mmHg 65%
    14:00 +26°C° 0.9 mm 2 mps 622 mmHg 68%
    15:00 +25°C° 0.9 mm 2 mps 621 mmHg 70%
    16:00 +25°C° 0.9 mm 2 mps 621 mmHg 73%
    17:00 +23°C° 0.7 mm 2 mps 620 mmHg 79%
    18:00 +20°C° 0.7 mm 2 mps 620 mmHg 85%
    19:00 +19°C° 0.7 mm 2 mps 620 mmHg 92%
    20:00 +18°C° 0.1 mm 2 mps 621 mmHg 92%
    21:00 +18°C° 0.1 mm 2 mps 621 mmHg 92%
    22:00 +17°C° 0.1 mm 2 mps 621 mmHg 93%
    23:00 +17°C° 0 mm 2 mps 621 mmHg 93%
    Show more